Location: Dentlein
(49.1477°N, 10.4231°E)
Time: 18:44:05
(UTC+00:00)

SL-27 R/B - Pass Details

Date: 23 May 2024
Orbit: 326 x 351 km, 74.7° (Epoch: 24 June)

Event Time Altitude Azimuth Distance (km) Brightness Sun altitude
Exits shadow 02:44:17 - 240° (WSW) 1,392 4.2 -6.2°
Reaches altitude 10° 02:44:40 10° 244° (WSW) 1,256 4.0 -6.1°
Maximum altitude 02:46:54 22° 300° (WNW) 778 3.4 -5.8°
Drops below altitude 10° 02:49:10 10° 355° (N) 1,263 5.2 -5.6°
Sets 02:51:21 0° 12° (NNE) 2,104 6.7 -5.3°
